Hourly Data Report for July 01, 2021

WINNIPEG THE FORKS
MANITOBA
Current Station Operator: ECCC - MSC

49°53'18.008" N
97°07'46.007" W
230.00 m
5023262
71579
XWN

Download Data

Hourly Data (July 2021)
Hourly Data Report for July 1, 2021
TIME
LST
Temp Definition
°C
Dew Point Definition
°C
Rel Hum Definition
%
Precip. Amount Definition
mm

Wind Dir Definition
10's deg

Wind Spd Definition
km/h
Visibility Definition
km
Stn Press Definition
kPa
Hmdx Definition


Wind Chill Definition


Weather Definition


00:00 22.3 12.1 52 0.0 1 4   99.18 25   LegendNANA
01:00 21.2 12.4 57 0.0 3 3   99.19     LegendNANA
02:00 19.4 13.2 67 0.0 35 2   99.17     LegendNANA
03:00 18.6 12.8 69 0.0 2 2   99.18     LegendNANA
04:00 17.9 12.9 72 0.0   0   99.21     LegendNANA
05:00 17.2 11.8 71 0.0   0   99.24     LegendNANA
06:00 18.2 12.1 68 0.0   0   99.27     LegendNANA
07:00 20.5 12.2 59 0.0   0   99.28     LegendNANA
08:00 22.4 13.0 55 0.0   0   99.28 25   LegendNANA
09:00 24.8 13.1 48 0.0   0   99.29 28   LegendNANA
10:00 27.2 11.6 38 0.0 36 2   99.27 29   LegendNANA
11:00 28.8 7.3 26 0.0 1 5   99.26 29   LegendNANA
12:00 29.7 6.6 23 0.0 8 3   99.23 30   LegendNANA
13:00 30.3 9.0 27 0.0 1 7   99.19 31   LegendNANA
14:00 31.1 7.2 23 0.0 4 6   99.16 31   LegendNANA
15:00 30.7 6.6 22 0.0 4 6   99.12 31   LegendNANA
16:00 31.2 7.0 22 0.0 35 5   99.07 31   LegendNANA
17:00 31.7 6.2 20 0.0 24 3   99.04 31   LegendNANA
18:00 31.8 7.4 22 0.0 18 2   99.00 32   LegendNANA
19:00 30.9 8.8 25 0.0 7 2   98.99 32   LegendNANA
20:00 29.0 8.7 28 0.0 22 2   98.98 30   LegendNANA
21:00 27.0 9.1 32 0.0 0 1   98.99 28   LegendNANA
22:00 24.1 13.6 52 0.0 0 1   99.03 27   LegendNANA
23:00 23.3 12.2 50 0.0 5 2   99.08 26   LegendNANA

Notes on Data Quality.

Legend

  • E = Estimated
  • M = Missing
  • NA = Not Available*
  • [empty] = Indicates an unobserved value
Date modified: